Guernsey, United Kingdom

3:38 AM BST on October 17, 2017 (GMT +0100)
Guernsey

Weather History for EGJB - December, 2012

Change the Weather History Date:

Sunday, December 9, 2012

  Actual Average Record
Temperature  
Mean Temperature 44 °F -  
Max Temperature 48 °F 46 °F 55 °F (1997)
Min Temperature 40 °F 42 °F 35 °F (2010)
Degree Days  
Heating Degree Days 21    
Moisture  
Dew Point 43 °F    
Average Humidity 85    
Maximum Humidity 100    
Minimum Humidity 67    
Precipitation  
Precipitation 0.08 in - - ()
Sea Level Pressure  
Sea Level Pressure 30.24 in    
Wind  
Wind Speed 15 mph ()    
Max Wind Speed 25 mph    
Max Gust Speed 36 mph    
Visibility 7.4 miles    
Events Rain    
Averages and records for this station are not official NWS values.
T = Trace of Precipitation, MM = Missing Value Source: Averaged Metar Reports

Daily Weather History Graph

Daily Weather History Graph

Search for Another Location

Airport or City:

Trip Planner

Search our weather history database for the weather conditions in past years. The results will help you decide how hot, cold, wet, or windy it might be!

Date:

Astronomy

Dec. 09, 2012 Rise Set
Actual Time 7:54 AM GMT 4:11 PM GMT
Civil Twilight 7:17 AM GMT 4:48 PM GMT
Nautical Twilight 6:36 AM GMT 5:29 PM GMT
Astronomical Twilight 5:57 AM GMT 6:08 PM GMT
Moon 2:51 AM GMT (12/9) 1:25 PM GMT (12/9)
Length of Visible Light 9h 31m
Length of Day
8h 16m
Waning Crescent, 20% of the Moon is Illuminated
Dec 9
Waning Crescent
Dec 13
New
Dec 20
First Quarter
Dec 28
Full
Jan 5
Last Quarter

Hourly Weather History & Observations

Time (GMT) Temp. Windchill Dew Point Humidity Pressure Visibility Wind Dir Wind Speed Gust Speed Precip Events Conditions
12:00 AM 44 °F - 39 °F 76% 30.38 in 37 mi WNW 8.1 mph - -   Partly Cloudy
3:00 AM 46 °F - 39 °F 67% 30.36 in 37 mi West 10.4 mph - -   Partly Cloudy
3:50 AM 46.4 °F 41.5 °F 39.2 °F 76% 30.33 in 6.2 mi West 10.4 mph - N/A   Mostly Cloudy
4:20 AM 46.4 °F 40.7 °F 41.0 °F 81% 30.30 in 6.2 mi West 12.7 mph - N/A   Mostly Cloudy
4:50 AM 48.2 °F - 42.8 °F 82% 30.30 in 6.2 mi West 15.0 mph - N/A Rain Light Rain Showers
5:20 AM 48.2 °F - 41.0 °F 76% 30.30 in 6.2 mi West 16.1 mph - N/A   Mostly Cloudy
5:50 AM 48.2 °F - 42.8 °F 82% 30.30 in 6.2 mi West 13.8 mph - N/A   Mostly Cloudy
6:00 AM 47 °F - 42 °F 79% 30.32 in 28 mi West 13.8 mph - - Rain Light Rain Showers
6:20 AM 48.2 °F - 42.8 °F 82% 30.30 in 6.2 mi West 17.3 mph - N/A   Mostly Cloudy
6:50 AM 48.2 °F - 44.6 °F 87% 30.30 in 6.2 mi West 17.3 mph - N/A Rain Light Rain Showers
7:20 AM 46.4 °F 39.5 °F 44.6 °F 93% 30.30 in 6.2 mi West 17.3 mph - N/A   Mostly Cloudy
7:50 AM 46.4 °F 39.5 °F 44.6 °F 93% 30.27 in 6.2 mi West 17.3 mph - N/A   Mostly Cloudy
8:20 AM 46.4 °F 39.8 °F 44.6 °F 93% 30.27 in 6.2 mi West 16.1 mph - N/A Rain Light Rain Showers
8:50 AM 46.4 °F 39.0 °F 42.8 °F 87% 30.27 in 6.2 mi WNW 19.6 mph - N/A   Mostly Cloudy
9:00 AM 47 °F - 43 °F 82% 30.31 in 19 mi WNW 19.6 mph - - Rain Light Rain Showers
9:20 AM 46.4 °F 39.0 °F 44.6 °F 93% 30.30 in 6.2 mi West 19.6 mph - N/A   Mostly Cloudy
9:50 AM 48.2 °F - 42.8 °F 82% 30.27 in 6.2 mi West 19.6 mph - N/A   Mostly Cloudy
10:20 AM 48.2 °F - 42.8 °F 82% 30.27 in 6.2 mi WNW 18.4 mph - N/A   Mostly Cloudy
10:50 AM 48.2 °F - 42.8 °F 82% 30.27 in 6.2 mi WNW 19.6 mph - N/A   Mostly Cloudy
11:20 AM 48.2 °F - 41.0 °F 76% 30.27 in 6.2 mi WNW 19.6 mph - N/A   Mostly Cloudy
11:50 AM 48.2 °F - 42.8 °F 82% 30.24 in 6.2 mi West 21.9 mph - N/A   Mostly Cloudy
12:00 PM 48 °F - 42 °F 73% 30.27 in 22 mi West 21.9 mph - -   Partly Cloudy
12:20 PM 48.2 °F - 42.8 °F 82% 30.24 in 6.2 mi West 20.7 mph - N/A   Mostly Cloudy
12:50 PM 48.2 °F - 42.8 °F 82% 30.24 in 6.2 mi WNW 16.1 mph - N/A Rain Light Rain Showers
1:20 PM 48.2 °F - 42.8 °F 82% 30.21 in 6.2 mi West 20.7 mph - N/A Rain Light Rain Showers
1:50 PM 48.2 °F - 42.8 °F 82% 30.21 in 6.2 mi West 23.0 mph - N/A   Mostly Cloudy
2:20 PM 48.2 °F - 42.8 °F 82% 30.18 in 6.2 mi West 23.0 mph - N/A   Mostly Cloudy
2:50 PM 48.2 °F - 44.6 °F 87% 30.18 in 6.2 mi West 18.4 mph - N/A   Mostly Cloudy
3:00 PM 48 °F - 44 °F 83% 30.21 in 19 mi West 18.4 mph - -   Partly Cloudy
3:20 PM 48.2 °F - 42.8 °F 82% 30.18 in 6.2 mi West 24.2 mph - N/A   Mostly Cloudy
3:50 PM 48.2 °F - 42.8 °F 82% 30.18 in 6.2 mi West 25.3 mph - N/A   Mostly Cloudy
4:20 PM 48.2 °F - 42.8 °F 82% 30.18 in 6.2 mi West 24.2 mph - N/A   Mostly Cloudy
4:50 PM 48.2 °F - 44.6 °F 87% 30.18 in 6.2 mi West 23.0 mph 35.7 mph N/A Rain Light Rain Showers
5:20 PM 48.2 °F - 44.6 °F 87% 30.15 in 6.2 mi WNW 20.7 mph - N/A   Mostly Cloudy
5:50 PM 48.2 °F - 44.6 °F 87% 30.15 in 6.2 mi WNW 18.4 mph 29.9 mph N/A Rain Light Rain Showers
6:00 PM 48 °F - 44 °F 81% 30.18 in 19 mi WNW 18.4 mph - - Rain Light Rain Showers
6:20 PM 46.4 °F 39.8 °F 46.4 °F 100% 30.18 in 5.0 mi WNW 16.1 mph - N/A Rain Rain Showers
6:50 PM 46.4 °F 39.0 °F 46.4 °F 100% 30.15 in 6.2 mi WNW 19.6 mph - N/A Rain Light Rain Showers
7:20 PM 46.4 °F 38.7 °F 44.6 °F 93% 30.15 in 6.2 mi WNW 20.7 mph - N/A Rain Light Rain Showers
7:50 PM 46.4 °F 39.0 °F 44.6 °F 93% 30.15 in 6.2 mi WNW 19.6 mph - N/A Rain Light Rain Showers
8:20 PM 48.2 °F - 46.4 °F 93% 30.15 in 6.2 mi WNW 16.1 mph - N/A   Scattered Clouds
8:50 PM 46.4 °F 40.4 °F 44.6 °F 93% 30.15 in 6.2 mi NW 13.8 mph - N/A Rain Light Rain Showers
9:00 PM 47 °F - 45 °F 91% 30.18 in 16 mi NW 13.8 mph - - Rain Light Rain Showers